Location: Hokitika
(42.7170°S, 170.9670°E)
Time: 10:23:04
(UTC+13:00)

Cosmos 1745 Rocket - Pass Details

Date: 24 January 2019
Orbit: 953 x 997 km, 83.0° (Epoch: 18 February)

Event Time Altitude Azimuth Distance (km) Brightness Sun altitude
Exits shadow 23:05:13 19° 2° (N) 2,199 5.4 -17.6°
Maximum altitude 23:10:01 77° 85° (E) 1,032 4.0 -18.2°
Drops below altitude 10° 23:16:24 10° 169° (S) 2,780 6.9 -18.9°
Sets 23:18:56 0° 170° (S) 3,729 7.7 -19.2°
